Погода в Бад-Райхенхалле

Германия     47°43′15″N   12°52′26″E
темп.,
°C
ветер,
м/с
пор.,
м/с
влажн.,
%
обл.,
%
осадки,
мм/ч
давл.,
гПа
погр.,
м
17 октября, вс
вс1723:00+4ю22950 0.0 102225
02:00+3ююз22891 0.0 102228
05:00+3ююз22885 0.0 102221
08:00+3ююз22855 0.0 102229
11:00+11с11575 0.0 1020486
14:00+13ссв225322 0.0 1019890
17:00+11ссв22735 0.0 1019198
20:00+5ююз21955 0.0 102214
18 октября, пн
пн1823:00+5ююз2294100 0.0 102420
02:00+5ююз2288100 0.0 102424
05:00+5ююз2285100 0.0 102430
08:00+5ююз228299 0.0 102533
11:00+12с11601 0.0 1024498
14:00+14с22540 0.0 1023958
17:00+12ссв12735 0.0 1024122
20:00+7ю229399 0.0 102616
19 октября, вт
вт1923:00+6ююз2182100 0.0 102715
02:00+7ююз2271100 0.0 102717
05:00+7ю2265100 0.0 102634
08:00+7ююз226099 0.0 102625
11:00+14юз114698 0.0 1025229
14:00+17с1141100 0.0 1024645
17:00+13в1170100 0.0 102410
20:00+11юз1168100 0.0 102516
20 октября, ср
ср2023:00+11ю1166100 0.0 102411
02:00+11ю2257100 0.0 102232
05:00+12ю225781 0.0 102040
08:00+10ю326976 0.0 101937
11:00+19ююз1251100 0.0 1016253
14:00+21с115181 0.0 1013535
17:00+17ссв1179100 0.0 101321
20:00+13юз218643 0.0 101312
21 октября, чт
чт2123:00+14юв1180100 0.1 101319
02:00+12ю2283100 0.1 101243
05:00+10ююз2395100 1.4 101395
08:00+10юз228999 2.3 101435
11:00+12всв1186100 0.5 1014358
14:00+10ссв1196100 0.9 101387
17:00+10всв1198100 1.8 101289
20:00+8в1297100 4.8 101370